Beatrice, NE

7:49 AM CST on December 16, 2017 (GMT -0600)
Beatrice Municipal

Weather History for KBIE - July, 2013

Change the Weather History Date:

Saturday, July 13, 2013

  Actual Average Record
Temperature  
Mean Temperature 86 °F -  
Max Temperature 95 °F 95 °F 105 °F (1966)
Min Temperature 77 °F 69 °F 0 °F (2006)
Cooling Degree Days 21    
Growing Degree Days 36 (Base 50)    
Moisture  
Dew Point 69 °F    
Average Humidity 60    
Maximum Humidity 71    
Minimum Humidity 38    
Precipitation  
Precipitation 0.00 in - - ()
Sea Level Pressure  
Sea Level Pressure 29.95 in    
Wind  
Wind Speed 12 mph (SSE)    
Max Wind Speed 21 mph    
Max Gust Speed 25 mph    
Visibility 10 miles    
Events      
Averages and records for this station are not official NWS values.
T = Trace of Precipitation, MM = Missing Value Source: NWS Daily Summary

Daily Weather History Graph

Daily Weather History Graph

Search for Another Location

Airport or City:

Trip Planner

Search our weather history database for the weather conditions in past years. The results will help you decide how hot, cold, wet, or windy it might be!

Date:

Astronomy

Jul. 13, 2013 Rise Set
Actual Time 6:08 AM CDT 8:56 PM CDT
Civil Twilight 5:36 AM CDT 9:28 PM CDT
Nautical Twilight 4:55 AM CDT 10:09 PM CDT
Astronomical Twilight 4:09 AM CDT 10:55 PM CDT
Moon 11:26 AM CDT (7/13) 11:37 PM CDT (7/13)
Length of Visible Light 15h 52m
Length of Day
14h 48m
Waxing Crescent, 26% of the Moon is Illuminated
Jul 13
Waxing Crescent
Jul 15
First Quarter
Jul 22
Full
Jul 29
Last Quarter
Aug 6
New

Hourly Weather History & Observations

Time (CDT) Temp. Heat Index Dew Point Humidity Pressure Visibility Wind Dir Wind Speed Gust Speed Precip Events Conditions
12:15 AM 82.9 °F 86.0 °F 68.2 °F 61% 29.95 in 10.0 mi SSE 13.8 mph 18.4 mph N/A   Clear
12:35 AM 82.8 °F 85.8 °F 68.2 °F 61% 29.95 in 10.0 mi SSE 12.7 mph 20.7 mph N/A   Scattered Clouds
12:55 AM 82.6 °F 85.5 °F 68.0 °F 61% 29.95 in 10.0 mi SSE 12.7 mph 20.7 mph N/A   Scattered Clouds
1:15 AM 82.4 °F 85.4 °F 68.0 °F 62% 29.95 in 10.0 mi SSE 12.7 mph 23.0 mph N/A   Clear
1:35 AM 81.9 °F 84.8 °F 68.0 °F 63% 29.95 in 10.0 mi SSE 13.8 mph 18.4 mph N/A   Clear
1:55 AM 81.5 °F 84.2 °F 68.0 °F 63% 29.96 in 10.0 mi South 12.7 mph 19.6 mph N/A   Clear
2:15 AM 81.0 °F 83.8 °F 68.0 °F 65% 29.96 in 10.0 mi South 13.8 mph 17.3 mph N/A   Clear
2:35 AM 80.6 °F 83.2 °F 68.0 °F 65% 29.96 in 10.0 mi SSE 13.8 mph - N/A   Clear
2:55 AM 80.2 °F 82.8 °F 68.0 °F 66% 29.96 in 10.0 mi SSE 10.4 mph - N/A   Clear
3:15 AM 79.7 °F - 68.0 °F 67% 29.97 in 10.0 mi SSE 11.5 mph - N/A   Clear
3:35 AM 79.7 °F - 68.0 °F 67% 29.97 in 10.0 mi SSE 9.2 mph - N/A   Clear
3:55 AM 79.2 °F - 68.0 °F 69% 29.96 in 10.0 mi SSE 11.5 mph - N/A   Scattered Clouds
4:15 AM 78.8 °F - 68.0 °F 69% 29.96 in 10.0 mi SSE 10.4 mph - N/A   Scattered Clouds
4:35 AM 78.4 °F - 67.6 °F 69% 29.96 in 10.0 mi SSE 11.5 mph - N/A   Scattered Clouds
4:55 AM 78.1 °F - 67.1 °F 69% 29.96 in 10.0 mi SSE 11.5 mph - N/A   Clear
5:15 AM 77.9 °F - 66.6 °F 68% 29.96 in 10.0 mi SSE 12.7 mph 18.4 mph N/A   Clear
5:35 AM 77.5 °F - 66.4 °F 68% 29.96 in 10.0 mi SSE 11.5 mph 17.3 mph N/A   Clear
5:55 AM 77.5 °F - 65.8 °F 67% 29.96 in 10.0 mi South 11.5 mph 16.1 mph N/A   Clear
6:15 AM 77.9 °F - 65.5 °F 65% 29.97 in 10.0 mi South 11.5 mph 18.4 mph N/A   Clear
6:35 AM 77.9 °F - 65.8 °F 66% 29.97 in 10.0 mi South 10.4 mph 17.3 mph N/A   Mostly Cloudy
6:55 AM 78.6 °F - 66.0 °F 65% 29.97 in 10.0 mi South 12.7 mph - N/A   Mostly Cloudy
7:15 AM 78.4 °F - 66.2 °F 66% 29.97 in 10.0 mi South 11.5 mph - N/A   Scattered Clouds
7:35 AM 78.8 °F - 66.6 °F 66% 29.97 in 10.0 mi SSE 10.4 mph - N/A   Scattered Clouds
7:55 AM 79.5 °F - 66.9 °F 65% 29.97 in 10.0 mi South 9.2 mph - N/A   Mostly Cloudy
8:15 AM 80.1 °F 82.3 °F 67.1 °F 64% 29.97 in 10.0 mi South 10.4 mph - N/A   Scattered Clouds
8:35 AM 80.1 °F 82.4 °F 67.5 °F 65% 29.98 in 10.0 mi SSE 10.4 mph 17.3 mph N/A   Scattered Clouds
8:55 AM 79.9 °F - 68.0 °F 67% 29.99 in 10.0 mi SE 10.4 mph - N/A   Scattered Clouds
9:15 AM 79.7 °F - 68.0 °F 67% 29.99 in 10.0 mi SE 8.1 mph - N/A   Scattered Clouds
9:35 AM 79.7 °F - 67.5 °F 66% 29.99 in 10.0 mi SE 8.1 mph - N/A   Scattered Clouds
9:55 AM 80.8 °F 83.5 °F 68.0 °F 65% 29.99 in 10.0 mi SSE 9.2 mph - N/A   Scattered Clouds
10:15 AM 82.4 °F 85.4 °F 68.2 °F 62% 29.98 in 10.0 mi SSE 11.5 mph 16.1 mph N/A   Scattered Clouds
10:35 AM 82.4 °F 85.4 °F 68.4 °F 62% 29.98 in 10.0 mi SSE 11.5 mph - N/A   Mostly Cloudy
10:55 AM 83.8 °F 87.0 °F 68.4 °F 59% 29.98 in 10.0 mi SSE 12.7 mph - N/A   Mostly Cloudy
11:15 AM 86.7 °F 90.3 °F 68.4 °F 54% 29.97 in 10.0 mi SSE 13.8 mph 18.4 mph N/A   Mostly Cloudy
11:35 AM 85.8 °F 89.1 °F 68.2 °F 55% 29.97 in 10.0 mi SSE 17.3 mph 20.7 mph N/A   Scattered Clouds
11:55 AM 89.2 °F 93.2 °F 68.5 °F 50% 29.96 in 10.0 mi SSE 16.1 mph 20.7 mph N/A   Mostly Cloudy
12:15 PM 90.0 °F 94.1 °F 68.2 °F 49% 29.96 in 10.0 mi SSE 20.7 mph 25.3 mph N/A   Mostly Cloudy
12:35 PM 88.0 °F 92.5 °F 69.4 °F 54% 29.96 in 10.0 mi SSE 12.7 mph - N/A   Scattered Clouds
12:55 PM 87.6 °F 91.9 °F 69.1 °F 54% 29.96 in 10.0 mi SE 11.5 mph 18.4 mph N/A   Clear
1:15 PM 87.8 °F 92.2 °F 69.1 °F 54% 29.95 in 10.0 mi SSE 11.5 mph - N/A   Clear
1:35 PM 90.0 °F 94.1 °F 68.2 °F 49% 29.95 in 10.0 mi SSE 11.5 mph 18.4 mph N/A   Clear
1:55 PM 92.1 °F 96.2 °F 68.2 °F 45% 29.95 in 10.0 mi SSE 10.4 mph - N/A   Clear
2:15 PM 93.4 °F 97.6 °F 68.0 °F 43% 29.95 in 10.0 mi SSE 11.5 mph 17.3 mph N/A   Clear
2:35 PM 95.2 °F 98.3 °F 66.2 °F 38% 29.94 in 10.0 mi South 16.1 mph - N/A   Clear
2:55 PM 93.9 °F 97.5 °F 66.9 °F 41% 29.94 in 10.0 mi SE 13.8 mph 21.9 mph N/A   Clear
3:15 PM 93.9 °F 97.0 °F 66.2 °F 40% 29.94 in 10.0 mi South 17.3 mph 20.7 mph N/A   Clear
3:35 PM 92.5 °F 96.9 °F 68.5 °F 45% 29.94 in 10.0 mi SSE 13.8 mph 20.7 mph N/A   Clear
3:55 PM 91.4 °F 96.8 °F 69.6 °F 49% 29.93 in 10.0 mi SE 15.0 mph 19.6 mph N/A   Clear
4:15 PM 89.8 °F 95.6 °F 70.5 °F 53% 29.94 in 10.0 mi SE 12.7 mph 21.9 mph N/A   Clear
4:35 PM 90.7 °F 96.9 °F 70.9 °F 52% 29.94 in 10.0 mi SE 15.0 mph 18.4 mph N/A   Clear
4:55 PM 91.4 °F 97.8 °F 70.7 °F 51% 29.94 in 10.0 mi SSE 12.7 mph - N/A   Clear
5:15 PM 91.8 °F 97.5 °F 70.2 °F 49% 29.94 in 10.0 mi SSE 13.8 mph 21.9 mph N/A   Clear
5:35 PM 90.9 °F 96.7 °F 70.5 °F 51% 29.93 in 10.0 mi SSE 12.7 mph - N/A   Clear
5:55 PM 90.7 °F 98.5 °F 72.5 °F 55% 29.93 in 10.0 mi SE 15.0 mph 21.9 mph N/A   Clear
6:15 PM 89.6 °F 96.6 °F 71.8 °F 56% 29.92 in 10.0 mi SE 11.5 mph 17.3 mph N/A   Clear
6:35 PM 89.2 °F 95.4 °F 71.1 °F 55% 29.92 in 10.0 mi SSE 12.7 mph - N/A   Clear
6:55 PM 88.0 °F 95.1 °F 72.3 °F 60% 29.91 in 10.0 mi SE 12.7 mph - N/A   Clear
7:15 PM 86.9 °F 92.9 °F 71.6 °F 60% 29.92 in 10.0 mi SE 10.4 mph - N/A   Clear
7:35 PM 86.4 °F 92.2 °F 71.6 °F 61% 29.92 in 10.0 mi SE 11.5 mph - N/A   Clear
7:55 PM 86.0 °F 91.8 °F 71.6 °F 62% 29.93 in 10.0 mi SE 9.2 mph 16.1 mph N/A   Clear
8:15 PM 85.5 °F 91.1 °F 71.6 °F 63% 29.93 in 10.0 mi SE 10.4 mph 16.1 mph N/A   Clear
8:35 PM 84.7 °F 90.4 °F 71.6 °F 65% 29.93 in 10.0 mi SE 9.2 mph - N/A   Clear
8:55 PM 84.2 °F 89.9 °F 72.0 °F 67% 29.93 in 10.0 mi SE 9.2 mph - N/A   Clear
9:15 PM 82.9 °F 88.5 °F 72.5 °F 71% 29.94 in 10.0 mi ESE 6.9 mph - N/A   Clear
9:35 PM 82.4 °F 87.4 °F 72.3 °F 71% 29.94 in 10.0 mi SE 9.2 mph - N/A   Clear
9:55 PM 82.4 °F 87.2 °F 71.8 °F 70% 29.95 in 10.0 mi SE 10.4 mph 17.3 mph N/A   Clear
10:15 PM 82.4 °F 86.7 °F 70.7 °F 68% 29.95 in 10.0 mi SE 12.7 mph 17.3 mph N/A   Clear
10:35 PM 81.9 °F 85.6 °F 69.8 °F 67% 29.95 in 10.0 mi SE 12.7 mph 19.6 mph N/A   Clear
10:55 PM 81.5 °F 84.6 °F 68.9 °F 65% 29.96 in 10.0 mi SE 11.5 mph - N/A   Clear
11:15 PM 81.0 °F 83.8 °F 68.0 °F 65% 29.96 in 10.0 mi SE 12.7 mph - N/A   Clear
11:35 PM 80.6 °F 83.2 °F 67.6 °F 65% 29.96 in 10.0 mi SE 11.5 mph 17.3 mph N/A   Clear
11:55 PM 80.1 °F 82.4 °F 67.3 °F 65% 29.97 in 10.0 mi SE 13.8 mph 20.7 mph N/A   Clear